Flag for Mozambique Weather past 2 weeks in Maputo, Mozambique

Now
77 °F

Passing clouds.


Feels Like: 78 °F
Forecast: 75 / 85 °F
Wind: 6 mph from Southeast

Location: Maputo / Mavalane

Current Time: Dec 25, 2014 at 2:13:18 AM

Latest Report: Dec 25, 2014 at 1:00 AM


Visibility: N/A

Pressure: 29.89 "Hg

Humidity: 89%

Dew point: 73 °F

Location of MaputoLocation

Historic Weather in Maputo — Graph

°F

Maputo temperature yesterday

Maximum temperature yesterday: 97 °F (at 11:00 AM)
Minimum temperature yesterday: 75 °F (at 4:00 AM)
Average temperature yesterday: 84 °F

Past Weeks' High & Low Weather Summary

 TemperatureHumidityPressure
High97 °F (Dec 24, 11:00 AM)100% (Dec 11, 3:00 AM)30.21 "Hg (Dec 11, 3:00 AM)
Low66 °F (Dec 10, 5:00 AM)42% (Dec 24, 11:00 AM)29.71 "Hg (Dec 12, 5:00 PM)
Average78 °F79%29.92 "Hg
* Reported Dec 10 1:00 AM — Dec 25 1:00 AM, Maputo, Weather by CustomWeather, © 2014

Note: Actual official high and low records may vary slightly from our data, if they occured in-between our weather recording intervals... More about our weather records

Advertising

Maputo weather history for previous 24 hours

 ConditionsComfort  
Time TempWeatherWind HumidityBarometerVisibility
1:00 AM
Dec 25
77 °FPassing clouds.6 mph89%29.89 "HgN/A
12:00 AM79 °FPassing clouds.6 mph84%29.92 "HgN/A
11:00 PM
Dec 24
79 °FPassing clouds.6 mph79%29.92 "HgN/A
10:00 PM79 °FPassing clouds.8 mph84%29.92 "HgN/A
9:00 PM81 °FPassing clouds.12 mph79%29.92 "HgN/A
8:00 PM81 °FPassing clouds.14 mph84%29.92 "HgN/A
7:00 PM81 °FPassing clouds.9 mph84%29.89 "HgN/A
6:00 PM82 °FPassing clouds.12 mph74%29.83 "HgN/A
5:00 PM86 °FBroken clouds.12 mph70%29.83 "HgN/A
4:00 PM86 °FBroken clouds.14 mph70%29.83 "HgN/A
3:00 PM93 °FScattered clouds.16 mph56%29.83 "HgN/A
2:00 PM93 °FPassing clouds.16 mph56%29.83 "HgN/A
12:00 PM77 °FPassing clouds.10 mph94%29.86 "HgN/A
11:00 AM97 °FPassing clouds.3 mph42%29.86 "HgN/A
10:00 AM91 °FPassing clouds.5 mph56%29.86 "HgN/A
9:00 AM90 °FScattered clouds.10 mph59%29.86 "HgN/A
8:00 AM84 °FScattered clouds.14 mph66%29.86 "HgN/A
6:00 AM77 °FScattered clouds.8 mph79%29.86 "HgN/A
5:00 AM75 °FScattered clouds.10 mph83%29.83 "HgN/A
4:00 AM75 °FPassing clouds.10 mph83%29.83 "HgN/A
3:00 AM90 °FPassing clouds.5 mph52%29.83 "HgN/A
Weather by CustomWeather, © 2014

See weather overviewHow to use our weather pages